DateTimeUTC,F1_A11,F1_S11,BsB_S11,BsG_S11,BsR_S11,BbsB_S11,BbsG_S11,BbsR_S11,BaB_A11,BaG_A11,BaR_A11,Tu_S11,T_S11,Uu_S11,U_S11,P_S11,T1_A11
2021-07-28T18:00:00Z,00000200,20000000,,,,,,,-000.08,-000.50,-000.12,20.6,26.8,16.1,11.1,0686.5,31.2
2021-07-28T18:01:00Z,00000200,20000000,,,,,,,-000.57,0000.04,-000.24,20.5,26.8,16.2,11.1,0686.5,31.2
2021-07-28T18:02:00Z,00000200,20000000,,,,,,,-000.42,-000.21,-000.28,20.5,26.8,16.2,11.1,0686.5,31.2
2021-07-28T18:03:00Z,00000200,60000000,,,,,,,0000.61,0000.53,0000.45,20.5,26.8,16.2,11.1,0686.5,31.2
2021-07-28T18:04:00Z,00000200,40000000,0008.73,0005.89,0003.34,0001.11,0000.83,0000.44,0001.03,0000.98,0000.97,20.6,26.7,16.1,11.2,0687.4,31.2
2021-07-28T18:05:00Z,00000200,00000000,0009.23,0006.23,0003.27,0000.64,0001.07,0000.33,0001.10,0000.82,0001.08,20.7,26.6,16.1,11.2,0687.4,31.2
2021-07-28T18:06:00Z,00000200,00000000,0008.38,0005.50,0003.00,0001.26,0000.86,0000.09,0000.73,0000.87,0000.58,20.6,26.6,16.3,11.3,0687.4,31.2
2021-07-28T18:07:00Z,00000200,00000000,0007.45,0005.18,0003.04,0000.65,0000.67,0000.44,0000.57,0000.78,0000.10,20.7,26.6,16.1,11.2,0687.4,31.2
2021-07-28T18:08:00Z,00000200,00000000,0007.62,0005.19,0002.94,0000.87,0000.88,0000.41,0001.24,0001.15,0001.66,20.7,26.6,16.2,11.3,0687.5,31.2
2021-07-28T18:09:00Z,00000200,00000000,0007.80,0004.62,0002.67,0000.58,0000.64,0000.31,0000.15,-000.10,-000.28,20.7,26.6,16.4,11.4,0687.4,31.2
2021-07-28T18:10:00Z,00000200,00000000,0007.70,0004.79,0002.84,0000.69,0000.43,0000.48,0001.03,0001.19,0000.71,20.7,26.6,16.2,11.3,0687.4,31.2
2021-07-28T18:11:00Z,00000200,00000000,0006.38,0004.51,0002.73,0000.87,0000.71,0000.48,-000.01,0000.11,0000.23,20.7,26.6,16.2,11.3,0687.4,31.2
2021-07-28T18:12:00Z,00000200,00000000,0006.72,0004.30,0002.44,0000.60,0000.79,0000.25,0001.16,0001.10,0000.84,20.7,26.6,16.1,11.3,0687.4,31.2
2021-07-28T18:13:00Z,00000200,00000000,0007.13,0004.62,0002.69,0000.80,0000.61,0000.64,0000.36,0000.11,0000.42,20.7,26.6,16.2,11.3,0687.4,31.2
2021-07-28T18:14:00Z,00000200,00000000,0007.62,0004.48,0002.47,0001.17,0000.67,0000.27,0000.46,0000.38,0000.51,20.7,26.6,16.1,11.3,0687.3,31.2
2021-07-28T18:15:00Z,00000200,00000000,0006.46,0004.22,0002.69,0001.03,0000.47,0000.39,0000.66,0000.68,0000.00,20.7,26.6,16.0,11.2,0687.4,31.2
2021-07-28T18:16:00Z,00000200,00000000,0007.45,0004.42,0002.91,0000.92,0000.67,0000.47,0000.66,0000.62,0000.73,20.7,26.6,16.0,11.2,0687.4,31.2
2021-07-28T18:17:00Z,00000200,00000000,0007.79,0004.24,0002.65,0001.14,0000.77,0000.31,0000.45,0000.12,0000.66,20.7,26.6,16.0,11.2,0687.4,31.2
2021-07-28T18:18:00Z,00000200,00000000,0007.96,0004.62,0002.90,0000.50,0000.92,0000.27,0000.27,0000.91,0000.56,20.7,26.6,16.1,11.3,0687.5,31.3
2021-07-28T18:19:00Z,00000200,00000000,0007.00,0004.71,0002.63,0000.51,0000.50,0000.10,0001.09,0000.67,0000.68,20.7,26.6,16.2,11.3,0687.5,31.3
2021-07-28T18:20:00Z,00000200,00000000,0007.35,0004.79,0003.39,0000.42,0000.59,0000.43,0000.74,0000.78,0000.66,20.7,26.6,16.2,11.3,0687.5,31.3
2021-07-28T18:21:00Z,00000200,00000000,0008.27,0004.95,0003.19,0001.18,0000.67,0000.63,0000.95,0001.08,0000.75,20.8,26.6,16.1,11.3,0687.5,31.2
2021-07-28T18:22:00Z,00000200,00000000,0008.35,0005.24,0002.84,0001.13,0000.68,0000.28,0000.84,0000.22,0000.36,20.7,26.6,16.1,11.3,0687.5,31.2
2021-07-28T18:23:00Z,00000200,00000000,0007.74,0005.30,0003.12,0000.97,0000.77,0000.69,0000.45,0001.00,0000.81,20.7,26.6,16.0,11.2,0687.6,31.2
2021-07-28T18:24:00Z,00000200,00000000,0007.61,0005.18,0003.11,0000.74,0000.80,0000.61,0001.33,0000.94,0000.78,20.7,26.6,16.1,11.2,0687.6,31.2
2021-07-28T18:25:00Z,00000200,00000000,0008.15,0005.56,0003.06,0001.48,0000.65,0000.66,0000.71,0000.79,0000.51,20.7,26.6,16.2,11.4,0687.5,31.2
2021-07-28T18:26:00Z,00000200,00000000,0008.40,0004.64,0003.36,0001.20,0000.88,0000.56,0000.86,0001.19,0001.07,20.7,26.6,16.2,11.4,0687.6,31.2
2021-07-28T18:27:00Z,00000200,00000000,0007.12,0005.29,0002.68,0000.82,0000.84,0000.18,0000.70,0000.12,0000.09,20.7,26.6,16.3,11.4,0687.6,31.2
2021-07-28T18:28:00Z,00000200,00000000,0008.23,0005.09,0002.49,0000.59,0000.74,0000.54,0000.10,0000.04,0000.26,20.7,26.6,16.0,11.2,0687.6,31.2
2021-07-28T18:29:00Z,00000200,00000000,0008.21,0004.81,0002.67,0001.58,0000.47,0000.19,0001.00,0001.54,0000.94,20.7,26.6,16.1,11.3,0687.6,31.2
2021-07-28T18:30:00Z,00000200,00000000,0007.38,0004.88,0002.97,0001.35,0000.30,0000.44,0001.11,0000.82,0000.94,20.7,26.6,16.2,11.3,0687.6,31.2
2021-07-28T18:31:00Z,00000200,00000000,0007.76,0005.21,0003.14,0000.83,0000.60,0000.42,0000.91,0000.61,0000.62,20.7,26.6,16.3,11.4,0687.6,31.2
2021-07-28T18:32:00Z,00000200,00000000,0007.76,0005.07,0003.12,0000.69,0000.91,0000.67,0001.02,0000.91,0000.76,20.7,26.6,16.3,11.4,0687.7,31.2
2021-07-28T18:33:00Z,00000200,00000000,0008.44,0005.36,0003.30,0000.88,0000.40,0000.54,0000.07,0000.15,0000.07,20.7,26.6,16.3,11.4,0687.6,31.2
2021-07-28T18:34:00Z,00000200,00000000,0007.49,0005.24,0002.92,0000.92,0000.58,0000.36,0000.97,0000.99,0001.22,20.7,26.6,16.3,11.4,0687.6,31.2
2021-07-28T18:35:00Z,00000200,00000000,0007.51,0004.82,0002.78,0001.45,0000.60,0000.50,0000.29,0000.16,0000.12,20.7,26.6,16.2,11.4,0687.5,31.2
2021-07-28T18:36:00Z,00000200,00000000,0007.64,0004.56,0002.68,0000.93,0000.72,0000.32,0000.57,0000.50,0000.23,20.7,26.6,16.0,11.2,0687.5,31.2
2021-07-28T18:37:00Z,00000200,00000000,0007.72,0005.19,0002.82,0001.17,0000.81,0000.52,0000.60,0000.87,0000.58,20.7,26.6,16.0,11.2,0687.5,31.2
2021-07-28T18:38:00Z,00000200,00000000,0008.28,0004.98,0003.12,0000.80,0000.97,0000.78,0001.28,0000.91,0000.92,20.7,26.6,16.0,11.2,0687.6,31.2
2021-07-28T18:39:00Z,00000200,00000000,0008.32,0005.31,0002.91,0001.35,0000.73,0000.62,0000.66,0001.25,0000.81,20.7,26.6,16.1,11.3,0687.6,31.2
2021-07-28T18:40:00Z,00000200,00000000,0008.25,0005.33,0002.90,0000.24,0000.85,0000.46,0001.13,0000.25,0000.85,20.7,26.6,16.2,11.4,0687.6,31.2
2021-07-28T18:41:00Z,00000200,00000000,0007.71,0004.99,0002.73,0000.99,0001.13,0000.44,0000.03,0000.39,0000.11,20.7,26.6,16.1,11.3,0687.5,31.2
2021-07-28T18:42:00Z,00000200,00000000,0007.54,0004.88,0002.67,0001.50,0000.66,0000.37,0000.75,0000.69,0000.56,20.7,26.6,15.9,11.1,0687.4,31.2
2021-07-28T18:43:00Z,00000200,00000000,0008.21,0004.92,0002.96,0000.54,0000.67,0000.62,0000.57,0000.44,0000.41,20.7,26.6,15.9,11.1,0687.5,31.2
2021-07-28T18:44:00Z,00000200,00000000,0007.45,0004.87,0002.50,0000.76,0000.87,0000.33,0000.48,0000.42,0000.41,20.7,26.5,15.7,11.0,0687.5,31.2
2021-07-28T18:45:00Z,00000200,00000000,0008.08,0004.80,0002.88,0000.48,0000.54,0000.40,0000.85,0000.81,0000.41,20.7,26.6,15.8,11.1,0687.5,31.2
2021-07-28T18:46:00Z,00000200,00000000,0007.71,0005.07,0003.22,0001.76,0000.62,0000.53,0001.10,0001.07,0001.22,20.6,26.6,16.0,11.2,0687.5,31.2
2021-07-28T18:47:00Z,00000200,00000000,0008.08,0005.69,0003.32,0000.75,0000.61,0000.88,0001.09,0001.28,0001.31,20.6,26.6,16.3,11.4,0687.6,31.2
2021-07-28T18:48:00Z,00000200,00000000,0007.49,0004.79,0003.36,0001.32,0000.94,0000.47,0000.14,0000.41,-000.24,20.6,26.6,16.1,11.3,0687.4,31.2
2021-07-28T18:49:00Z,00000200,00000000,0006.90,0004.91,0002.17,0000.54,0000.68,0000.29,0000.72,0000.45,0000.58,20.6,26.5,15.9,11.2,0687.5,31.2
2021-07-28T18:50:00Z,00000200,00000000,0007.50,0004.67,0003.10,0000.52,0000.54,0000.68,0000.70,0000.55,0000.26,20.6,26.5,16.0,11.2,0687.5,31.2
2021-07-28T18:51:00Z,00000200,00000000,0007.38,0004.66,0002.60,0001.25,0001.03,0000.36,0000.69,0000.59,0001.04,20.6,26.5,15.9,11.1,0687.5,31.2
2021-07-28T18:52:00Z,00000200,00000000,0007.43,0004.62,0002.97,0000.88,0001.00,0000.34,-000.02,0000.16,-000.21,20.6,26.5,15.9,11.1,0687.5,31.2
2021-07-28T18:53:00Z,00000200,00000000,0007.45,0004.46,0002.27,0001.24,0000.63,0000.57,0001.30,0001.26,0001.24,20.6,26.6,16.0,11.1,0687.6,31.2
2021-07-28T18:54:00Z,00000200,00000000,0007.79,0004.80,0002.55,0001.25,0000.80,0000.15,0000.98,0000.67,0000.60,20.6,26.5,16.1,11.2,0687.6,31.2
2021-07-28T18:55:00Z,00000200,00000000,0006.17,0004.60,0002.47,0000.80,0000.59,0000.58,0000.68,0000.49,0000.52,20.6,26.5,16.1,11.3,0687.6,31.2
2021-07-28T18:56:00Z,00000200,00000000,0006.91,0004.83,0002.97,0000.91,0000.57,0000.44,0000.33,0000.55,0000.52,20.6,26.5,16.2,11.3,0687.6,31.2
2021-07-28T18:57:00Z,00000200,40000000,,,,,,,0000.35,0000.12,0000.11,20.6,26.6,16.7,11.6,0687.6,31.2
2021-07-28T18:58:00Z,00000200,60000000,,,,,,,-000.36,0000.02,-000.35,20.4,26.6,16.3,11.1,0686.6,31.2
2021-07-28T18:59:00Z,00000200,20000000,,,,,,,-000.49,-000.77,0000.12,20.4,26.7,16.3,11.1,0686.6,31.2
